Preview of NWS' New Version of Forecast
This preview is not operational and should not be used for support decisions.

Regional Weather Roundup (RWR)

Issued by National Weather Service (NWS)

                            
000
ASUS44 KMEG 221010
RWRTN 
TENNESSEE HOURLY STATE WEATHER ROUNDUP
NATIONAL WEATHER SERVICE MEMPHIS TN
500 AM CDT WED MAY 22 2019

TNZ002-004-019-021-049-052-054-088>092-221100-
WEST TENNESSEE
  
CITY           SKY/WX    TMP DP  RH WIND       PRES   REMARKS
MEMPHIS INTL   MOCLDY    73  66  78 CALM      29.84F                  
NWS MEMPHIS      N/A     74 N/A N/A MISG        N/A                   
JACKSON        FAIR      74  66  76 S6        29.88R                  
DYERSBURG      MOCLDY    65  63  93 SE3       29.88S                  
SOMERVILLE     MOCLDY    75  66  73 S10       29.86S                  
COVINGTON      CLOUDY    66  64  94 NE6       29.87R                  
UNION CITY     CLOUDY    64  64 100 CALM      29.87F                  
BOLIVAR        PTCLDY    73  66  78 S8G14     29.87S                  
PARIS          CLOUDY    68  63  83 NW7G13    29.89R                  
LEXINGTON      CLOUDY    73  66  78 S8        29.90R                  
SELMER         CLEAR     73  66  78 S8G18     29.90R                  
SAVANNAH       MOCLDY    73  68  83 S13       29.91R                  
$$

TNZ008-025-027-028-033-062-065-066-221100-
NORTH MIDDLE TENNESSEE
  
CITY           SKY/WX    TMP DP  RH WIND       PRES   REMARKS
NASHVILLE      FAIR      74  62  66 S12       29.93R                  
DICKSON        SUNNY     72  64  78 SW8       29.93R                  
PORTLAND       PTCLDY    72  63  73 S12       29.92R                  
CLARKSVILLE    MOCLDY    75  64  68 S8        29.90R                  
LEBANON        SUNNY     73  63  68 S12G17    29.91S                  
SMYRNA         FAIR      72  63  73 S8        29.94S                  
MURFREESBORO   MOSUNNY   72  63  73 S9        29.93S                  
COOKEVILLE     CLEAR     70  63  78 SE7       29.96F                  
LIVINGSTON     SUNNY     73  61  64 S7G15     29.97F                  
CROSSVILLE     FAIR      66  59  78 SE5       30.05F                  
ROCKWOOD       CLOUDY    63  61  94 SE5       30.05F                  
$$

TNZ061-075-076-078-094-096-097-221100-
SOUTH MIDDLE TENNESSEE
  
CITY           SKY/WX    TMP DP  RH WIND       PRES   REMARKS
LAWRENCEBURG   MOSUNNY   70  64  83 VRB5      29.95R                  
LEWISBURG      MOSUNNY   70  64  83 S8        29.94R                  
FAYETTEVILLE   CLEAR     70  63  78 S10       29.97S                  
TULLAHOMA      CLEAR     68  61  77 SE6       29.97S                  
WINCHESTER     CLEAR     70  59  68 SE6       29.98F                  
MCMINNVILLE    CLEAR     72  59  64 SW5       29.97F                  
COLUMBIA       CLEAR     72  70  94 S12G18    29.92R                  
SHELBYVILLE    CLEAR     72  63  73 S7        29.96R                  
$$

TNZ017-018-042-046-047-221100-
NORTHEAST TENNESSEE
  
CITY           SKY/WX    TMP DP  RH WIND       PRES   REMARKS
TRI CITIES     FAIR      61  55  81 N3        30.12R                  
ELIZABETHTON   FAIR      68  55  64 VRB5G15   30.13R                  
GREENEVILLE    SUNNY     66  57  72 CALM      30.09S                  
$$

TNZ012-013-036-069-073-074-221100-
CENTRAL EAST TENNESSEE
  
CITY           SKY/WX    TMP DP  RH WIND       PRES   REMARKS
KNOXVILLE      FAIR      66  60  81 NW5       30.04R                  
OAK RIDGE      FAIR      65  59  81 CALM      30.06R                  
DOWNTOWN KNOXV CLOUDY    63  63 100 CALM      30.05R                  
GATLINBURG     CLEAR     61  59  94 N5        30.04S                  
MORRISTOWN     PTCLDY    64  57  77 CALM      30.06S                  
JACKSBORO      MOCLDY    59  57  94 CALM      30.09R                  
$$

TNZ083-085-099-221100-
SOUTHEAST TENNESSEE
  
CITY           SKY/WX    TMP DP  RH WIND       PRES   REMARKS
CHATTANOOGA    FAIR      70  67  90 S3        30.02S                  
DAYTON         PTSUNNY   66  66 100 CALM      30.02F                  
$$

SKY/WX REPORTED AS FAIR MEANS FEW OR NO CLOUDS BELOW
12 THOUSAND FEET.